Location: ????? ???????
(25.7275°N, 32.5929°E)
Time: 11:45:24
(UTC+00:00)

Cosmos 1666 - Pass Details

Date: 02 March 2021
Orbit: 497 x 518 km, 82.5° (Epoch: 15 April)

Event Time Altitude Azimuth Distance (km) Brightness Sun altitude
Rises 17:05:16 0° 177° (S) 2,569 6.2 -17.3°
Reaches altitude 10° 17:07:24 10° 174° (S) 1,689 5.2 -17.8°
Maximum altitude 17:11:02 60° 94° (E) 571 2.5 -18.6°
Drops below altitude 10° 17:14:42 10° 14° (NNE) 1,698 5.2 -19.4°
Sets 17:16:50 0° 10° (N) 2,585 6.2 -19.9°
